sat.trackr.live / text

‹ back to catalog

STARLINK-4485

NORAD 53541 · 2022-101Q

PAYLOAD ACTIVE UNKNOWN

§ Identity

Operator
Country
US
Launch date
2022-08-19
Launch site
AFETR
Launch vehicle
Mass (kg)
RCS (m²)

Purposes: comms

External: N2YO · Heavens-Above · Gunter

§ Orbital elements

Epoch: 2026-05-25T02:12:10.745856Z

Period
95.44 min
Inclination
53.2133°
Eccentricity
0.0001683
Mean motion
15.08837046 rev/d
Perigee alt
538.6 km
Apogee alt
540.9 km
Semi-major
6,917.9 km
B*
3.2732e-5
RAAN
91.1343°
Arg perigee
55.2000°
Mean anomaly
304.9150°
Rev number
20,839

§ Raw data

STARLINK-44851 53541U 22101Q   26145.09179104  .00000233  00000+0  32732-4 0  99912 53541  53.2133  91.1343 0001683  55.2000 304.9150 15.08837046208394

JSON: /api/v1/satellites/53541 · /tle

For live sub-satellite position, see the globe view (requires WebGL).

§ Visibility from observer

Set your observer location to see the next 7 days of passes ≥ 10°. The values pass through the URL so the page stays shareable.

No JS? Fill the form by hand. The geolocation button needs JavaScript.